Location: *
(45.9500°N, 9.0833°E)
Time: 22:52:30
(UTC+00:00)

Tiros 1 despin weight - Pass Details

Date: 25 June 2021
Orbit: 593 x 642 km, 48.2° (Epoch: 02 August)

Event Time Altitude Azimuth Distance (km) Brightness Sun altitude
Rises 05:20:00 0° 268° (W) 2,833 ? 15.5°
Reaches altitude 10° 05:22:19 10° 271° (W) 1,927 ? 15.9°
Maximum altitude 05:26:42 66° 354° (N) 648 ? 16.6°
Drops below altitude 10° 05:31:06 10° 78° (ENE) 1,925 ? 17.4°
Sets 05:33:24 0° 81° (E) 2,828 ? 17.7°
